STARLINK-3122, 49445

Orbit data source: Space-Track

STARLINK-3122, 49445 is a payload satellite owned by SpaceX/Seattle (US) in LEO that was launched on Sat, 13 Nov 2021 UTC via an FALCON 9 launch vehicle from the Air Force Eastern Test Range (AFETR). Payload-class satellites include a variety of spacecraft equipped with specific instruments for various scientific and technological missions. These include communications satellites like Starlink; space stations such as the ISS; scientific satellites like the Hubble; Earth observation satellites from companies like Planet Labs, Umbra, and HawkEye 360; GPS; miniature CubeSats for education and research; and military/defense satellites.

Loading next visibility...
Identifier
49445, 2021-104AP
Orbit
LEO
Country
Flag of USUS
Related business
Manufacturer
SpaceX/Seattle
Mission
Operational Commercial Communications
Bus & Motor
STARLINK, Unknown motor
Mass
290 kg wet, ~270 kg dry
Launch date (UTC)
2021-11-13 (5 years ago)
Launch vehicle
FALCON 9
Launch site
Air Force Eastern Test Range (AFETR)
Object type
Payload
Rocket body
Debris
Shape & HBR
Box + 1 Pan, 10.1 m
Radar Cross Section
13.562 m², Large (>1 m²)

Expand to show TLE details & history
Last TLE update: 1 week ago

TLE from 1 week ago
0 STARLINK-3122
1 49445U 21104AP  26155.24179014  .00002091  00000-0  14944-3 0  9998
2 49445  53.1850 190.9437 0003605  27.6184 332.4999 15.08848122251832
Epoch: 2026-06-04T05:48Z
TLE epoch observation values (Epoch: 2026-06-04T05:48:10.668Z)
Latitude
0.00002°
Longitude
-148.78961°
Altitude
538.401 km
Speed
7.596 km/s
True Right ascension
12h 43m 46s
True Declination
0° 00' 00"
Sunlit
Object was in full shadow at epoch
Visualization orbit readout
Latitude
Unknown
Longitude
Unknown
Altitude
Unknown
Speed
Unknown
Apparent Right ascension
Unknown
Apparent Declination
Unknown
Sunlit
N/A
Visualization observer readout
Local Sidereal Time
14:51:32
Azimuth
Unknown
Elevation
Unknown
Doppler factor
Unknown
Orbital elements
Apogee altitude
542.463 km
Perigee altitude
537.475 km
Semi-major axis
6,918.106 km
Eccentricity
0.00036
Inclination
53.185°
RAAN
190.9437°
Arg. of periapsis
27.6184°
True anomaly
332.48082°
Mean anomaly
332.4999°
Eccentric anomaly
332.49036°
Mean motion
3.77192 °/min
Orbital period
95.44 mins
BSTAR
0.00014944
Loading maneuver chart data...
Computing Atmospheric mass density...
Loading historical data...
Loading historical data...
Loading historical data...
Loading historical data...
Loading historical data...
Loading historical data...
Loading historical data...

Documentation

Showing up to 5 results
|